[Date Prev][Date Next][Thread Prev][Thread Next] - [Date Index][Thread Index][Author Index]
2 Line ISS Keps 4-9
- Subject: [sarex] 2 Line ISS Keps 4-9
- From: "Dave Larsen PhD" <doc@xxxxxxxxxxx>
- Date: Fri, 9 Apr 2004 05:47:29 -0700
ISS
1 25544U 98067A 04100.47704774 .00024201 00000-0 21722-3 0 5380
2 25544 51.6294 315.9114 0010995 12.7473 44.7905 15.68073243307537
----
Via the sarex mailing list at AMSAT.ORG courtesy of AMSAT-NA.
To unsubscribe, send "unsubscribe sarex" to Majordomo@amsat.org
AMSAT Home